Theta_e
355 354 352 352 352 353 354 351 349 349 355 350 351 353 354 361 360 356 356 361 359 360 365 370 371 370 360 367 371 371 369 368 366 363 369 368 361 356 353 354 357 355
355 355 357 352 359 359 359 352 351 352 356 364 359 359 357 360 353 359 359 361 360 357 367 363 367 368 368 364 369 365 368 366 365 357 362 362 363 353 353 357 355 361
351 352 350 348 347 348 347 350 355 353 350 351 354 364 353 355 356 363 367 359 362 356 363 369 367 368 362 365 369 369 362 368 365 359 365 359 359 354 357 355 354 355
352 351 348 347 347 347 347 350 352 356 354 353 353 354 353 353 358 356 361 364 361 362 359 362 362 359 361 363 369 369 364 370 364 365 357 354 363 362 358 364 360 355
349 349 348 348 348 351 351 349 349 351 352 354 351 355 359 366 360 354 357 359 364 363 363 363 361 360 367 370 367 370 367 361 360 361 357 354 361 361 361 364 362 356
352 354 354 350 350 351 347 348 350 351 351 352 353 354 354 356 354 356 359 355 355 356 356 358 359 359 362 365 368 368 364 359 361 359 358 357 357 358 360 363 362 360
350 351 350 349 348 348 349 350 350 352 351 351 354 353 355 352 354 358 359 358 358 363 353 358 366 361 362 367 369 367 366 363 360 358 359 358 357 355 360 362 365 363
350 350 350 350 348 348 349 350 349 350 353 353 352 353 355 353 357 354 354 358 356 358 360 363 362 365 360 360 364 366 364 362 360 359 358 356 355 354 355 360 362 361
349 350 349 349 349 348 347 348 350 350 353 351 350 351 353 354 355 353 357 357 355 356 358 358 361 362 363 366 366 365 365 363 362 359 358 356 354 355 356 358 356 358
348 348 347 347 346 347 347 347 348 349 351 351 351 349 349 352 355 354 356 360 356 355 358 357 362 362 360 361 364 363 365 363 360 359 357 355 355 357 359 358 356 352
344 345 346 346 345 345 346 347 347 346 348 349 349 348 349 350 354 355 355 354 348 350 355 361 360 362 362 360 362 365 366 362 361 360 360 360 362 363 360 353 349 349
349 346 346 347 347 346 345 346 346 346 346 347 347 348 350 347 348 348 348 353 353 353 353 358 360 359 361 361 359 361 364 363 363 362 361 361 360 358 352 349 348 348
353 354 350 348 351 346 346 347 345 345 345 345 347 349 348 346 346 348 351 350 356 356 358 361 361 361 364 364 364 364 364 363 360 358 357 356 357 353 349 348 348 349
352 352 357 361 359 355 354 349 345 344 346 347 349 348 346 347 346 344 345 347 354 352 359 362 363 361 362 363 364 365 364 361 358 354 354 355 353 351 352 352 352 350
358 354 357 360 366 367 355 361 366 361 361 354 352 349 346 346 347 345 347 346 347 355 362 362 363 363 361 361 364 365 363 358 356 354 353 353 354 351 349 350 352 354
370 367 366 367 367 368 366 361 365 366 364 367 358 362 363 359 357 354 347 344 352 358 361 360 355 350 347 346 347 352 357 357 355 353 353 352 352 353 351 352 352 352
365 364 363 361 360 364 364 366 366 367 367 364 363 358 362 368 357 355 355 357 356 357 357 354 347 343 338 335 338 342 352 356 354 352 349 351 351 350 348 351 350 349
361 361 359 358 359 361 364 368 367 366 368 366 363 358 365 364 364 362 357 357 356 354 350 344 340 335 331 333 337 337 344 354 355 354 354 354 351 351 349 347 346 346
358 357 357 357 356 354 351 356 351 352 362 364 364 364 365 363 366 363 362 355 353 351 347 344 340 332 332 334 336 336 339 355 354 353 350 348 348 347 347 346 346 344
354 353 354 354 355 352 352 352 350 346 347 347 357 364 362 363 363 364 363 360 355 352 346 343 341 335 333 334 336 340 346 351 348 346 346 345 345 344 344 343 343 341
351 350 350 352 355 350 348 347 347 345 343 345 343 349 350 348 344 346 356 357 354 346 343 341 340 329 332 336 336 336 339 346 345 344 343 343 344 343 342 341 340 339
352 351 351 354 352 348 346 346 347 344 343 345 344 346 350 347 348 353 349 348 347 346 343 340 337 328 333 334 334 336 341 344 343 341 340 340 340 340 340 339 338 337
351 351 350 348 348 346 345 347 345 342 345 346 343 345 346 347 347 347 348 346 345 343 341 340 338 327 325 327 330 333 339 341 340 339 338 337 336 337 338 339 337 337
350 349 348 348 346 345 346 345 342 341 344 345 343 343 342 343 344 344 345 344 342 340 340 337 335 327 320 321 325 330 339 339 337 336 335 334 333 332 333 336 340 342
348 347 347 345 345 345 344 343 342 341 342 342 342 341 341 341 341 339 339 339 339 338 338 335 333 329 318 320 324 328 335 337 336 334 332 331 330 329 330 328 327 330
347 346 346 344 340 340 340 339 339 337 337 338 338 339 338 337 337 336 334 334 335 335 335 334 332 332 327 320 321 324 329 336 334 332 330 330 330 329 327 326 324 322
Wind_Speed
7 6 6 5 5 5 6 7 8 7 5 7 7 6 5 3 5 6 5 5 7 4 3 3 3 3 4 3 2 2 2 3 3 3 2 3 3 5 5 5 4 2
8 8 6 7 5 5 5 5 6 6 5 3 3 4 4 4 6 4 4 5 5 5 3 4 4 3 3 3 3 3 3 3 3 5 3 5 2 9 6 5 3 1
10 9 10 10 9 10 10 8 5 5 6 7 5 3 5 5 5 3 3 6 4 6 4 3 4 3 3 4 2 2 3 2 3 4 4 9 6 3 6 2 2 3
10 10 10 10 9 10 9 6 6 5 6 7 7 6 5 6 6 6 4 6 5 4 6 6 5 5 4 4 3 3 4 3 2 5 9 7 5 3 2 1 3 3
13 11 10 10 9 7 8 9 10 9 9 6 9 8 5 2 4 8 6 5 4 4 4 4 5 5 2 0 1 0 1 4 4 3 3 3 3 2 3 2 3 4
11 8 9 9 9 9 10 11 10 10 10 8 7 5 7 8 6 5 4 6 8 8 6 7 7 5 3 2 2 2 1 3 3 3 2 2 3 1 2 2 2 3
13 12 13 11 12 11 10 10 9 9 10 8 7 6 5 8 7 6 5 5 3 3 6 6 4 5 3 3 3 3 4 4 4 4 4 1 2 4 4 4 3 3
13 13 12 11 12 12 12 11 11 9 7 8 12 10 8 8 6 7 7 7 7 6 2 3 4 4 6 4 4 4 4 4 4 3 2 1 1 2 3 4 5 5
12 12 12 13 13 11 12 12 10 10 7 8 7 8 8 7 7 9 5 4 7 8 7 6 5 6 5 3 2 3 3 3 4 4 2 2 2 3 2 2 4 5
12 11 13 13 13 11 12 12 11 10 10 9 10 8 9 8 9 7 4 5 5 5 9 7 5 4 5 4 4 4 4 4 4 4 3 2 4 5 3 1 5 8
12 12 12 13 13 12 13 12 12 11 9 9 10 9 7 7 5 7 7 8 9 6 4 8 6 3 1 2 4 4 4 4 4 3 3 3 3 2 3 10 8 3
9 10 11 10 11 12 12 12 11 10 10 10 10 8 7 8 9 9 8 6 5 5 5 5 6 6 7 6 5 4 4 3 3 3 3 2 2 5 10 4 3 2
7 6 7 9 9 10 9 9 10 11 11 10 9 7 7 8 8 6 4 5 4 4 1 5 5 5 4 2 2 3 3 4 3 3 2 2 4 7 7 4 2 2
8 7 5 4 4 7 6 7 9 9 8 7 5 7 8 8 8 8 7 6 3 4 6 7 5 4 3 2 2 2 3 3 4 4 4 3 4 4 3 4 2 1
7 7 6 5 3 3 6 4 2 3 4 4 5 6 8 8 7 7 5 6 7 3 8 6 4 4 3 3 1 3 3 4 5 5 4 2 4 3 5 5 3 4
2 3 1 2 3 2 3 4 1 2 3 2 3 1 2 3 3 3 4 6 7 11 7 6 5 4 6 8 7 4 3 3 5 4 3 4 5 3 4 5 5 5
2 1 1 1 2 3 1 1 2 1 2 2 2 3 2 2 2 1 1 6 10 8 9 7 5 5 8 8 9 11 6 4 4 5 4 3 5 5 6 6 7 6
2 2 2 1 0 2 3 2 2 1 1 1 1 3 2 2 3 2 1 8 6 9 9 7 6 6 7 7 8 7 4 2 5 5 6 6 8 7 6 6 6 8
4 4 3 2 1 1 3 6 9 10 6 2 3 3 3 2 2 3 3 10 9 9 8 7 6 5 6 6 4 2 3 6 8 7 7 7 7 7 6 6 7 8
5 3 3 4 3 3 4 5 3 3 3 10 10 4 3 0 3 5 4 8 8 8 8 7 6 4 7 6 3 5 12 11 10 10 8 8 7 8 7 8 8 8
4 4 4 4 5 6 2 1 4 4 6 3 5 6 4 6 9 7 3 6 9 10 8 7 4 6 7 8 12 15 14 11 9 9 8 8 8 8 8 9 8 8
4 4 4 3 5 8 7 5 5 5 4 6 4 1 1 7 7 5 6 7 8 9 9 8 5 6 6 4 11 15 15 9 9 9 8 7 8 8 8 7 8 8
6 4 2 2 4 7 7 4 4 3 4 6 4 2 2 5 7 7 6 7 8 8 10 9 6 5 7 7 8 13 11 9 10 9 9 10 8 7 6 6 8 8
2 2 1 2 5 6 7 6 5 4 1 7 8 5 4 6 7 8 7 6 8 9 9 8 6 5 9 10 12 12 9 9 9 10 10 9 8 7 7 8 11 17
2 0 3 2 3 5 8 7 6 6 4 7 7 5 5 7 8 9 8 8 8 10 12 11 7 6 11 13 15 14 10 7 8 10 10 8 8 9 8 8 9 11
4 4 5 6 7 6 6 7 7 7 6 7 6 5 5 7 8 9 10 8 7 7 8 9 10 7 10 16 15 15 12 8 8 10 11 10 9 8 8 8 8 8
Wind_Direction
177 189 186 186 184 191 183 184 193 200 206 192 187 201 217 178 181 192 210 174 179 209 190 176 206 207 222 224 283 257 269 288 279 307 234 264 258 263 292 312 23 33
180 190 180 197 182 187 198 195 194 204 189 210 220 180 198 171 203 209 205 152 164 199 188 192 198 204 235 236 190 211 234 258 261 262 258 230 325 340 341 38 44 29
184 191 191 195 196 198 202 199 195 200 193 198 212 278 191 195 191 205 175 138 190 200 176 200 213 212 221 231 178 267 257 249 263 278 308 34 34 213 272 2 5 330
191 192 194 199 201 199 203 193 201 202 208 192 179 199 215 192 163 202 217 170 188 200 172 196 212 211 214 226 197 197 236 220 37 14 35 16 320 293 302 324 333 301
194 196 197 201 208 198 198 202 203 198 215 201 185 189 202 109 222 194 194 182 190 161 178 206 207 219 195 188 29 266 0 56 39 59 121 158 242 316 318 333 320 317
198 197 202 199 201 203 198 206 205 199 207 196 205 212 191 170 208 226 192 199 195 203 198 199 201 197 166 193 208 184 99 84 109 112 118 214 255 328 292 279 295 298
196 197 205 204 204 203 208 205 206 208 205 188 185 211 224 191 198 187 211 193 187 239 186 203 183 174 180 168 183 163 140 150 145 142 177 167 47 317 298 297 284 269
198 194 203 206 211 203 208 210 207 209 200 197 190 196 201 198 206 203 203 180 184 214 126 132 154 172 184 189 190 180 172 164 146 151 150 161 182 224 298 318 323 311
201 196 197 207 212 214 206 213 210 209 207 205 230 199 193 189 201 212 210 198 188 186 179 192 166 175 170 182 192 168 186 136 133 138 152 181 212 243 247 343 325 337
202 203 199 202 210 215 217 212 211 202 203 209 213 214 201 196 183 190 201 221 230 216 172 184 156 152 173 175 179 183 168 159 164 168 156 190 229 235 210 131 21 17
203 206 207 203 208 211 216 216 215 207 198 206 217 214 206 197 187 195 206 205 214 195 209 119 181 162 125 238 202 170 178 169 155 163 179 213 250 271 31 44 27 326
214 203 211 209 210 216 212 214 215 216 203 202 212 214 206 204 199 205 212 201 194 204 203 164 130 159 176 209 190 164 145 143 150 170 194 203 297 30 56 82 170 259
214 230 211 206 196 217 221 222 223 216 221 209 194 213 212 211 219 202 200 219 191 191 250 106 100 111 133 130 148 117 147 148 152 136 88 56 55 67 108 144 190 111
210 226 239 233 201 198 228 215 219 221 215 222 201 193 215 218 220 221 197 199 200 160 113 110 115 128 124 147 133 135 154 146 95 70 49 57 66 70 87 90 97 87
214 215 221 239 254 205 215 242 246 252 226 204 210 209 203 208 216 228 228 182 195 118 86 99 106 98 59 22 192 167 162 127 104 98 115 108 102 94 60 69 48 47
156 94 70 348 301 250 214 211 184 4 331 163 173 164 184 187 194 232 252 229 108 106 118 103 75 61 43 42 42 26 346 90 107 97 89 67 49 60 85 75 115 92
153 170 120 168 350 309 130 68 66 31 336 9 55 70 73 72 58 44 36 57 97 108 105 106 88 58 34 28 28 24 13 36 118 101 89 103 104 103 113 113 95 85
197 188 175 171 24 353 350 57 59 151 294 321 224 175 116 123 121 105 79 102 103 103 97 91 81 57 49 43 33 11 15 341 111 115 121 110 112 107 105 103 103 92
184 185 176 150 95 53 24 36 23 352 334 275 222 210 148 170 153 121 129 112 117 115 105 100 101 74 72 53 43 7 310 104 87 84 78 76 81 87 88 85 86 88
204 176 168 164 142 85 45 55 96 204 15 325 323 1 14 324 159 128 87 96 116 110 99 98 91 85 84 66 43 105 105 99 94 86 86 83 81 82 83 82 84 90
192 200 186 191 159 124 81 88 122 134 183 185 14 344 64 51 10 333 95 112 114 110 106 99 94 96 86 91 94 89 90 89 89 92 88 82 78 79 85 90 88 93
206 196 207 175 121 137 161 177 162 190 155 109 107 297 124 134 171 133 83 75 88 105 105 103 88 73 89 100 113 109 102 102 99 98 97 95 92 90 99 97 97 97
213 195 166 78 89 117 144 176 155 122 106 117 131 242 152 126 125 110 106 101 99 101 107 105 99 70 83 74 80 105 106 108 109 100 90 80 68 52 49 89 101 100
191 201 118 157 129 142 159 142 123 104 107 151 162 172 133 114 108 97 83 84 96 103 108 106 91 69 86 89 90 86 97 108 109 105 94 87 77 57 56 60 87 94
164 17 37 36 129 138 136 139 138 125 136 139 141 125 117 102 85 86 82 74 83 97 95 95 90 73 77 81 85 88 92 102 104 104 103 99 96 89 81 76 60 57
65 73 62 82 78 91 98 105 116 121 132 130 126 109 99 94 98 100 98 89 75 72 80 92 86 56 74 88 89 90 94 99 103 107 109 107 102 94 86 75 71 69